Location: Ste-F�licit�
(48.8999°N, 67.3360°W)
Time: 06:36:04
(UTC-04:00)

OTV 5 (USA 277) - Visible Passes

Search period start: 17 June 2019 00:00
Search period end: 27 June 2019 00:00
Orbit: 310 x 325 km, 54.5° (Epoch: 08 May)

Date Brightness Start Highest point End Pass type
(mag) Time Alt. Az. Time Alt. Az. Time Alt. Az.
17 Jun ? 00:27:27 50° E 00:27:27 50° E 00:29:41 10° ENE visible
17 Jun ? 01:58:57 10° WNW 02:01:26 29° NNW 02:03:56 10° NE visible
17 Jun ? 03:33:54 10° NW 03:36:18 26° N 03:38:42 10° ENE visible
18 Jun ? 00:40:48 35° W 00:41:41 57° NNW 00:44:25 10° NE visible
18 Jun ? 02:14:02 10° WNW 02:16:24 24° N 02:18:46 10° NE visible
18 Jun ? 23:23:00 32° E 23:23:00 32° E 23:24:49 10° ENE visible
19 Jun ? 00:53:57 10° W 00:56:33 34° NNW 00:59:08 10° NE visible
19 Jun ? 02:29:01 10° NW 02:31:22 24° N 02:33:43 10° ENE visible
19 Jun ? 23:35:20 24° WSW 23:36:50 81° NNW 23:39:37 10° ENE visible
20 Jun ? 01:09:03 10° WNW 01:11:28 26° N 01:13:53 10° NE visible
20 Jun ? 02:43:51 10° NW 02:46:19 28° NNE 02:48:48 10° ENE visible
20 Jun ? 22:14:54 10° SSW 22:17:23 30° SE 22:19:52 10° ENE visible
20 Jun ? 23:48:59 10° W 23:51:39 43° NNW 23:54:19 10° NE visible
21 Jun ? 01:24:05 10° WNW 01:26:26 24° N 01:28:47 10° ENE visible
21 Jun ? 02:58:34 10° NW 03:01:14 41° NNE 03:03:52 10° E visible
21 Jun ? 22:29:16 10° SW 22:32:01 70° SSE 22:34:47 10° ENE visible
22 Jun ? 00:04:03 10° WNW 00:06:33 29° NNW 00:09:03 10° NE visible
22 Jun ? 01:38:59 10° NW 01:41:24 26° N 01:43:48 10° ENE visible
22 Jun ? 03:13:17 10° WNW 03:16:03 76° NNE 03:18:48 10° ESE visible
22 Jun ? 22:44:03 10° WSW 22:46:46 57° NNW 22:49:31 10° NE visible
23 Jun ? 00:19:07 10° WNW 00:21:30 24° N 00:23:52 10° NE visible
23 Jun ? 01:53:46 10° NW 01:56:20 33° NNE 01:58:54 10° E visible
23 Jun ? 03:28:04 10° WNW 03:30:46 48° SW 03:33:26 10° SE visible
23 Jun ? 21:24:34 10° SW 21:27:14 45° SE 21:29:54 10° ENE visible
23 Jun ? 22:59:03 10° W 23:01:38 34° NNW 23:04:14 10° NE visible
24 Jun ? 00:34:06 10° NW 00:36:29 24° N 00:38:50 10° ENE visible
24 Jun ? 02:08:29 10° NW 02:11:12 54° NNE 02:13:55 10° ESE visible
24 Jun ? 21:39:10 10° WSW 21:41:56 80° NNW 21:44:42 10° ENE visible
24 Jun ? 23:14:08 10° WNW 23:16:34 26° N 23:18:59 10° NE visible
25 Jun ? 00:48:56 10° NW 00:51:25 29° NNE 00:53:54 10° ENE visible
25 Jun ? 02:23:12 10° WNW 02:25:58 74° SSW 02:28:43 10° SE visible
25 Jun ? 21:54:05 10° W 21:56:44 42° NNW 21:59:25 10° NE visible
25 Jun ? 23:29:11 10° WNW 23:31:31 24° N 23:33:53 10° ENE visible
26 Jun ? 01:03:40 10° NW 01:06:19 41° NNE 01:08:58 10° E visible
26 Jun ? 02:38:05 10° WNW 02:40:37 32° SW 02:43:07 10° SSE visible
26 Jun ? 22:09:09 10° WNW 22:11:39 29° NNW 22:14:08 10° NE visible
26 Jun ? 23:44:05 10° NW 23:46:30 26° N 23:48:55 10° ENE visible
